Location: Westerlo
(51.0830°N, 4.9170°E)
Time: 12:24:20
(UTC+02:00)

ISS - Pass Details

Date: 28 July 2019
Orbit: 410 x 421 km, 51.6° (Epoch: 23 August)

Event Time Altitude Azimuth Distance (km) Brightness Sun altitude
Rises 22:37:02 0° 281° (WNW) 2,376 1.1 -8.6°
Reaches altitude 10° 22:39:09 10° 281° (W) 1,508 0.0 -8.9°
Maximum altitude 22:42:32 81° 196° (SSW) 431 -3.8 -9.2°
Enters shadow 22:45:45 11° 107° (ESE) 1,440 -1.6 -9.6°
